Wetbulb
56.82 56.03 55.12 54.39 53.82 53.37 53.33 52.83 53.47 53.74 54.66 55.09 55.78 56.38 56.85 56.72 53.72 48.58 46.48 50.92 54.28 57.46 57.43 54.83 53.15 54.26 55.68 53.00 52.33 52.39 46.38 44.01 44.28 43.95 45.47 48.13 45.39 47.33 48.51 46.67 45.91 46.23 45.32 45.10 46.91
56.36 55.59 55.12 54.49 53.86 53.23 53.03 52.65 52.94 53.44 54.35 54.77 55.27 56.06 56.58 55.96 49.12 46.70 50.95 53.53 56.01 56.79 53.28 52.03 51.32 53.15 52.34 51.59 51.80 49.77 46.13 45.89 46.93 47.47 46.28 46.93 46.67 45.64 44.46 44.98 44.09 43.99 44.71 44.39 44.96
56.20 55.50 54.91 54.45 53.81 53.23 52.77 52.73 52.76 53.22 53.87 54.64 55.08 55.84 56.06 55.07 46.20 46.15 51.66 54.44 55.21 56.07 53.20 52.55 53.83 53.03 50.53 51.40 49.69 49.50 46.24 47.35 45.75 46.34 46.35 46.40 46.42 47.60 44.28 44.26 46.25 44.90 44.53 43.94 42.90
56.30 55.51 54.72 54.24 53.86 53.16 52.47 52.41 52.64 52.95 53.68 54.39 55.07 55.64 56.07 52.40 40.85 47.56 52.45 53.05 53.80 54.55 52.04 51.12 51.31 50.16 49.22 47.46 48.26 45.86 44.89 45.82 45.54 44.68 44.58 45.07 46.93 45.01 45.51 47.29 48.45 49.82 48.64 44.23 42.21
56.81 55.69 54.64 54.15 53.50 53.07 52.23 52.03 52.27 52.76 53.24 54.24 55.02 55.47 52.60 46.17 45.94 49.15 51.58 51.53 51.84 52.15 50.56 50.37 49.63 50.17 47.20 47.89 45.89 45.65 44.83 44.05 44.01 43.00 43.74 44.97 44.38 44.42 45.25 48.42 45.38 48.18 47.12 43.98 43.28
56.58 55.79 54.78 53.71 53.20 53.01 51.99 51.72 51.98 52.27 53.15 54.08 54.99 54.70 49.28 42.05 48.38 49.71 49.30 49.61 50.73 50.78 50.00 50.57 49.90 50.32 47.07 44.54 45.18 44.94 44.38 43.84 42.80 42.88 42.52 41.61 43.87 41.71 46.14 48.16 46.37 44.00 44.76 44.66 44.00
56.43 55.72 54.93 53.45 53.08 52.92 51.69 51.27 51.52 51.93 52.99 53.98 54.68 51.03 46.48 45.18 48.97 50.51 49.16 48.86 49.67 50.67 49.34 49.44 50.44 48.74 47.33 43.31 43.74 43.70 42.21 42.79 42.77 42.80 42.56 42.55 40.85 40.01 45.81 46.96 46.05 43.26 44.48 44.50 44.43
56.34 55.48 54.80 53.53 53.14 52.97 51.53 50.85 50.93 51.79 52.87 53.93 54.12 48.73 44.10 48.32 50.80 48.70 49.76 48.60 49.73 50.15 49.90 50.42 50.70 47.14 46.48 45.24 42.94 41.99 42.20 40.56 42.92 42.11 41.66 41.43 40.38 44.22 47.46 43.56 43.19 44.14 44.14 43.81 44.16
56.03 55.24 54.82 54.29 53.35 52.89 51.38 50.53 50.59 52.09 53.31 53.15 49.31 46.71 42.22 48.81 45.73 48.48 49.89 47.75 48.60 49.01 48.41 48.40 49.20 45.20 43.99 43.23 41.14 41.22 39.28 40.81 40.46 42.70 41.25 40.27 41.66 42.34 42.71 43.43 42.89 44.59 44.29 43.93 43.55
55.87 55.25 54.74 54.12 53.43 52.81 50.95 50.61 51.40 50.91 49.25 45.65 45.51 43.02 42.04 42.35 45.78 47.08 48.92 49.38 47.20 47.39 46.96 47.13 46.31 43.52 43.44 42.06 37.36 40.38 38.57 39.75 39.63 40.49 39.70 39.73 39.20 43.73 43.69 41.30 42.25 44.26 45.15 44.08 42.98
55.84 55.27 54.67 54.05 53.59 52.65 50.04 49.37 44.12 42.66 43.98 42.26 41.50 40.90 41.30 44.62 46.65 45.97 47.71 46.35 47.54 46.71 42.31 44.43 41.27 39.15 42.03 42.74 42.26 40.35 39.88 39.30 39.95 38.06 37.68 39.13 40.01 42.26 44.80 44.84 41.93 42.73 43.78 44.11 43.27
55.84 55.41 54.67 54.15 53.71 52.30 50.32 44.00 44.39 46.51 39.29 42.51 42.09 42.10 43.79 45.22 40.62 44.28 47.19 44.11 43.90 40.84 42.94 40.10 38.10 43.56 42.14 41.54 39.44 39.21 38.31 38.70 38.96 36.65 35.52 38.40 38.45 41.82 43.24 43.54 44.53 44.02 43.47 44.02 44.18
55.68 55.14 54.49 54.22 53.43 50.25 46.16 45.30 48.20 47.27 42.14 39.34 42.51 41.94 41.88 43.26 40.68 42.39 44.89 43.66 42.05 40.75 40.31 40.55 39.25 39.79 39.32 37.80 37.35 37.79 37.18 38.32 36.02 36.62 36.81 35.65 37.92 41.84 44.35 44.54 44.67 45.16 45.41 45.36 44.90
55.58 54.88 54.20 54.11 48.55 47.80 43.48 48.72 49.39 48.84 39.01 38.55 37.73 41.75 42.00 43.08 39.57 44.00 44.98 43.13 40.33 39.44 40.62 40.58 38.81 37.31 37.50 37.54 38.85 35.67 38.25 35.97 34.75 35.33 33.56 36.42 31.85 40.91 43.98 43.99 42.58 42.66 43.93 44.35 44.83
55.39 54.73 54.04 52.58 49.11 42.47 45.54 49.16 49.55 47.64 29.96 39.08 35.92 42.73 42.43 40.20 39.80 39.65 43.48 41.40 39.11 38.70 39.29 36.95 35.51 35.52 36.19 37.06 38.88 36.02 37.17 36.48 35.09 34.86 33.85 34.58 32.56 39.99 42.36 41.10 42.64 43.39 43.88 44.11 44.71
55.17 54.38 53.37 46.98 47.51 46.94 48.36 48.92 48.68 35.56 28.01 31.60 36.68 36.02 36.40 38.12 37.75 39.33 40.18 42.54 41.54 37.72 38.32 36.24 37.96 37.83 37.13 35.57 36.67 37.35 36.10 35.48 35.59 34.37 32.02 35.32 33.74 36.89 41.02 41.70 41.60 42.49 41.50 42.18 43.43
55.03 53.97 51.65 46.17 44.79 45.81 48.35 46.10 32.85 29.32 36.81 30.81 32.05 34.84 35.97 33.97 35.09 36.83 35.54 34.74 35.27 32.58 33.06 34.30 34.89 36.22 37.32 34.55 36.22 35.77 35.09 31.65 30.91 28.87 31.32 30.69 29.34 36.24 42.18 43.66 42.36 42.22 42.50 42.04 42.62
54.71 53.49 51.53 48.78 44.82 45.81 44.83 36.90 26.58 35.36 34.09 34.22 35.13 34.63 32.71 34.79 35.13 34.84 34.29 33.57 38.06 37.61 36.44 31.93 30.24 34.17 36.98 36.79 34.98 34.15 36.02 37.42 30.97 30.07 32.54 27.76 27.54 37.66 42.20 42.98 43.41 42.92 42.38 43.36 41.90
54.30 48.55 44.00 44.22 45.41 46.03 37.67 26.69 33.20 35.71 34.69 33.26 34.18 31.13 32.12 33.09 33.72 33.50 34.08 34.97 37.63 37.43 36.34 34.17 33.80 33.59 34.25 35.40 36.49 33.09 30.40 35.64 29.39 21.49 27.17 34.45 38.02 42.04 43.79 42.69 42.88 42.56 42.44 41.64 41.94
46.24 43.29 41.03 45.26 46.41 42.61 33.16 31.60 33.28 39.07 36.08 35.10 32.48 34.32 29.95 30.94 31.25 32.34 32.58 37.79 36.64 39.05 39.31 38.63 29.27 31.20 31.97 34.73 34.43 33.56 35.52 29.90 32.87 26.51 26.96 30.81 31.17 35.66 40.06 40.99 41.91 40.80 41.36 43.04 42.25
44.07 35.86 42.45 46.46 45.61 38.09 31.88 33.71 34.62 37.47 36.59 32.93 34.38 31.90 33.90 31.28 32.91 31.21 32.86 34.95 37.84 36.35 37.93 38.32 36.63 27.40 31.52 30.35 31.37 29.42 29.70 30.02 32.36 31.88 30.15 30.59 33.65 42.53 41.87 42.47 42.21 43.50 43.05 43.78 42.99
41.95 30.76 43.63 45.94 32.62 31.90 31.95 34.11 37.88 33.62 37.18 36.57 38.00 35.60 34.23 33.09 33.22 31.99 31.75 33.43 36.13 35.40 31.56 35.23 33.94 26.93 28.99 31.92 32.61 34.74 33.33 32.87 31.82 29.05 29.03 27.49 32.89 40.02 41.32 40.70 41.18 42.24 42.21 42.52 42.31
32.88 31.46 42.25 41.95 30.61 31.47 32.11 34.37 35.22 32.21 32.78 34.31 34.62 36.02 34.98 33.46 30.01 33.57 34.48 34.12 36.02 35.84 32.95 33.98 33.24 27.63 25.09 27.81 29.10 28.66 31.01 32.04 30.08 31.90 28.85 30.14 33.55 37.70 38.63 38.43 39.79 39.74 42.08 41.36 40.27
34.85 30.12 31.79 32.02 32.67 33.55 32.33 32.13 31.14 34.45 34.36 36.11 35.04 35.63 33.80 32.59 32.93 31.62 31.62 32.24 34.41 36.12 37.31 37.96 32.94 33.11 30.45 30.89 31.21 26.03 28.29 30.84 29.56 30.12 31.90 29.79 33.25 37.73 39.59 38.47 40.56 40.59 40.79 41.82 39.32
35.83 31.75 33.88 28.99 31.12 32.87 35.40 33.52 31.89 30.30 33.92 35.92 32.38 34.28 34.45 31.77 32.15 31.39 30.72 30.31 33.14 34.15 33.74 35.35 31.31 29.41 30.51 30.12 30.09 30.84 28.70 29.70 26.92 29.09 29.61 33.10 31.40 34.04 36.17 36.77 37.73 39.69 40.61 39.79 38.09
32.29 31.91 32.22 32.87 34.12 32.10 33.65 32.02 33.16 31.54 32.51 32.21 32.98 33.62 34.70 32.57 33.71 31.88 31.62 31.56 32.87 32.06 33.49 33.04 32.36 27.91 30.55 28.23 27.70 25.99 30.09 31.25 30.01 29.49 29.65 30.84 30.78 38.44 39.47 38.40 36.01 35.42 35.43 35.79 36.37
32.77 34.89 36.58 33.37 32.58 31.20 32.31 33.53 34.25 35.12 33.95 35.78 34.94 33.08 31.95 35.37 37.27 38.63 38.52 36.44 36.06 33.12 32.27 33.09 31.51 30.42 29.83 28.87 29.06 28.25 32.16 30.67 30.41 31.05 30.41 26.93 33.06 37.70 36.14 36.52 36.46 37.18 37.27 36.98 36.76
MSLP
1014.20 1014.34 1014.42 1014.53 1014.50 1014.65 1014.62 1014.59 1014.66 1014.64 1014.60 1014.41 1014.29 1014.11 1013.89 1013.69 1013.44 1013.17 1012.55 1012.90 1012.88 1012.93 1012.90 1012.00 1011.48 1010.96 1010.59 1010.49 1010.53 1010.24 1009.26 1008.43 1008.85 1009.79 1010.36 1012.20 1013.03 1014.03 1014.37 1014.86 1015.75 1016.33 1016.86 1017.95 1018.91
1013.89 1014.11 1014.21 1014.28 1014.47 1014.39 1014.59 1014.60 1014.55 1014.50 1014.51 1014.40 1014.24 1014.03 1013.88 1013.72 1013.11 1012.58 1012.90 1012.86 1012.90 1012.95 1012.36 1011.53 1010.84 1010.58 1010.14 1010.41 1010.48 1010.01 1009.37 1008.73 1009.72 1010.21 1010.97 1012.17 1012.77 1013.85 1014.74 1014.94 1015.48 1016.19 1017.49 1018.58 1019.47
1013.54 1013.83 1013.95 1014.04 1014.35 1014.39 1014.39 1014.58 1014.49 1014.45 1014.38 1014.34 1014.19 1014.03 1013.84 1013.57 1012.85 1011.82 1012.72 1012.85 1012.77 1012.79 1012.19 1011.53 1010.50 1010.27 1010.06 1010.33 1010.61 1010.22 1009.80 1010.13 1010.91 1011.49 1012.00 1012.40 1012.98 1013.65 1014.14 1013.82 1014.02 1014.92 1016.72 1018.31 1019.29
1013.23 1013.48 1013.70 1013.90 1014.14 1014.33 1014.18 1014.27 1014.40 1014.31 1014.28 1014.32 1014.21 1014.01 1013.75 1013.24 1012.62 1012.37 1012.87 1012.79 1012.69 1012.40 1012.03 1011.39 1010.80 1010.29 1010.05 1010.28 1010.88 1010.93 1011.31 1011.55 1012.08 1012.84 1012.92 1012.85 1013.13 1013.31 1013.48 1012.83 1013.52 1014.05 1015.19 1017.65 1018.50
1012.85 1013.19 1013.44 1013.67 1013.90 1014.09 1014.17 1014.05 1014.20 1014.26 1014.12 1014.20 1014.12 1013.90 1013.57 1012.95 1011.95 1012.39 1012.70 1012.55 1012.40 1012.32 1011.72 1011.16 1010.61 1010.20 1010.29 1010.46 1011.43 1011.31 1011.82 1012.59 1013.28 1013.76 1013.73 1013.71 1013.49 1013.61 1013.04 1013.31 1014.31 1014.42 1015.32 1016.65 1017.64
1012.39 1012.81 1013.13 1013.38 1013.73 1013.91 1014.09 1014.02 1013.99 1014.03 1014.08 1014.11 1014.00 1013.79 1013.15 1012.60 1012.51 1012.47 1012.57 1012.49 1012.10 1011.90 1011.65 1011.46 1010.80 1010.98 1011.18 1011.77 1011.88 1012.13 1012.47 1012.94 1013.80 1014.06 1014.29 1014.23 1013.66 1014.16 1012.33 1012.92 1013.92 1014.97 1015.35 1016.10 1016.87
1011.83 1012.39 1012.77 1013.14 1013.51 1013.81 1013.89 1013.94 1013.99 1013.86 1013.96 1013.96 1013.83 1013.38 1012.63 1012.36 1012.45 1012.46 1012.48 1012.45 1012.41 1011.92 1011.63 1011.96 1011.66 1011.36 1012.05 1012.48 1013.01 1012.79 1012.64 1013.13 1013.52 1014.05 1014.13 1014.55 1013.66 1012.55 1012.32 1012.55 1013.26 1014.50 1014.97 1015.65 1016.28
1011.27 1011.97 1012.36 1012.80 1013.18 1013.66 1013.79 1013.81 1013.89 1013.77 1013.77 1013.80 1013.77 1013.12 1011.69 1012.41 1012.26 1012.46 1012.40 1012.38 1012.45 1012.36 1012.19 1012.21 1012.10 1012.38 1012.48 1013.17 1012.90 1012.51 1012.55 1012.13 1012.74 1013.73 1014.42 1014.52 1011.87 1011.44 1011.34 1012.62 1013.01 1013.55 1014.11 1014.73 1015.38
1010.51 1011.44 1011.92 1012.40 1012.88 1013.42 1013.82 1013.81 1013.72 1013.67 1013.60 1013.53 1013.53 1012.81 1011.89 1012.60 1012.27 1012.32 1012.21 1011.92 1012.35 1012.43 1012.55 1012.48 1012.21 1012.54 1013.13 1012.34 1012.06 1011.96 1011.04 1011.25 1012.31 1013.17 1013.82 1014.03 1011.72 1011.59 1011.97 1012.20 1012.30 1012.49 1013.02 1013.63 1014.58
1009.73 1010.74 1011.44 1012.00 1012.63 1013.21 1013.72 1013.74 1013.56 1013.47 1013.39 1013.16 1012.87 1012.91 1012.43 1011.87 1012.13 1012.22 1012.45 1012.16 1011.98 1012.21 1012.28 1012.08 1011.98 1011.97 1011.83 1011.39 1010.36 1010.09 1010.69 1010.89 1011.57 1012.78 1013.50 1012.94 1011.56 1010.95 1011.20 1011.54 1011.21 1011.21 1011.50 1012.37 1013.34
1008.97 1009.94 1010.92 1011.60 1012.33 1012.95 1013.45 1013.58 1013.55 1013.18 1012.58 1011.55 1011.55 1011.57 1011.73 1012.30 1012.48 1012.19 1012.37 1012.15 1011.77 1011.56 1011.17 1011.75 1011.44 1010.74 1010.49 1010.57 1010.35 1010.37 1010.56 1010.75 1011.66 1013.04 1013.21 1012.09 1010.96 1009.84 1009.44 1009.22 1009.84 1009.90 1010.27 1010.74 1011.75
1008.27 1009.30 1010.35 1011.21 1011.99 1012.81 1012.72 1011.77 1010.63 1010.61 1011.32 1011.94 1011.98 1011.95 1011.91 1011.81 1011.93 1012.19 1012.45 1011.74 1011.27 1010.75 1011.24 1011.88 1010.86 1010.39 1010.91 1011.10 1011.33 1011.17 1011.08 1011.14 1012.08 1013.45 1013.60 1011.73 1009.98 1008.68 1007.96 1007.37 1007.57 1008.30 1009.07 1009.73 1011.04
1007.47 1008.67 1009.93 1010.88 1011.90 1012.73 1011.85 1010.98 1010.68 1010.50 1010.49 1011.69 1011.63 1011.56 1011.75 1011.93 1011.40 1011.71 1012.00 1011.37 1010.85 1010.61 1010.86 1010.58 1011.43 1011.61 1011.71 1012.01 1011.87 1011.76 1011.81 1011.98 1012.95 1013.43 1013.26 1012.28 1009.05 1007.07 1006.07 1006.16 1006.41 1006.77 1007.75 1008.81 1009.74
1006.49 1008.09 1009.33 1010.44 1012.21 1011.25 1011.36 1010.63 1010.82 1010.78 1010.66 1011.13 1011.47 1011.29 1011.79 1011.53 1011.73 1012.06 1011.87 1011.41 1011.34 1010.68 1010.95 1011.16 1012.16 1012.33 1012.47 1012.26 1012.29 1012.42 1012.64 1013.05 1013.42 1013.51 1012.90 1012.33 1008.95 1006.61 1005.40 1005.10 1005.75 1006.39 1006.94 1007.67 1008.62
1005.74 1007.24 1008.40 1008.97 1009.08 1010.10 1009.43 1010.19 1010.79 1010.83 1010.96 1010.16 1011.46 1012.21 1011.44 1011.23 1011.60 1012.28 1012.50 1011.78 1010.92 1010.80 1011.19 1011.89 1012.49 1012.85 1013.10 1013.11 1012.90 1013.38 1013.75 1013.67 1013.89 1013.80 1013.39 1012.09 1010.57 1005.99 1005.33 1005.06 1005.13 1005.66 1006.32 1007.14 1008.26
1004.63 1006.24 1007.74 1008.53 1008.55 1008.80 1009.22 1010.16 1010.90 1011.66 1009.76 1010.44 1011.24 1011.38 1011.50 1011.45 1011.80 1012.27 1012.12 1012.04 1011.78 1011.53 1011.67 1012.43 1013.45 1013.60 1013.70 1014.34 1014.38 1014.45 1014.37 1014.55 1014.35 1014.09 1013.41 1011.40 1010.43 1006.01 1004.82 1004.69 1005.41 1006.44 1007.19 1007.53 1008.26
1003.59 1005.17 1006.42 1007.53 1007.72 1008.84 1009.11 1010.15 1011.61 1010.57 1009.11 1010.36 1010.51 1010.99 1010.70 1011.19 1011.65 1011.59 1011.50 1011.34 1010.57 1011.02 1011.31 1012.53 1013.32 1014.36 1014.53 1014.62 1015.28 1014.96 1014.54 1015.08 1015.01 1014.56 1012.82 1012.14 1010.89 1006.49 1004.81 1004.61 1005.14 1005.94 1007.10 1008.05 1008.86
1002.41 1004.39 1005.48 1006.72 1007.27 1008.08 1009.27 1010.81 1011.44 1008.37 1009.19 1009.92 1009.93 1010.54 1010.66 1010.86 1011.12 1011.34 1011.16 1010.37 1009.94 1009.51 1009.85 1011.26 1013.08 1013.90 1014.35 1014.04 1014.18 1014.67 1014.61 1014.37 1014.16 1014.05 1012.65 1012.45 1009.44 1005.67 1004.81 1004.80 1005.22 1006.01 1006.96 1007.74 1009.06
1002.20 1004.44 1006.21 1007.18 1007.36 1008.05 1010.01 1011.65 1008.54 1008.19 1008.24 1009.25 1010.40 1010.69 1010.75 1010.83 1010.70 1010.92 1010.48 1009.44 1008.76 1009.30 1008.82 1009.93 1011.97 1014.29 1014.97 1014.97 1014.70 1015.19 1015.17 1014.65 1014.54 1015.31 1013.34 1010.14 1007.62 1005.53 1004.33 1004.65 1005.00 1005.56 1006.63 1007.85 1008.76
1002.47 1004.64 1006.84 1007.41 1007.55 1008.69 1010.27 1009.41 1009.06 1008.02 1008.25 1008.38 1008.68 1009.40 1009.82 1010.24 1010.45 1010.36 1010.03 1008.45 1008.56 1008.75 1009.30 1009.51 1011.88 1014.54 1015.49 1015.66 1015.54 1015.30 1014.74 1015.01 1014.85 1014.06 1012.00 1009.26 1007.87 1005.55 1004.73 1004.78 1005.09 1005.51 1006.43 1007.28 1008.62
1003.28 1005.29 1007.43 1007.78 1008.20 1008.78 1008.67 1008.56 1008.69 1007.94 1007.93 1008.28 1008.10 1009.18 1009.51 1009.86 1010.00 1009.99 1009.50 1009.07 1008.86 1009.25 1009.84 1010.07 1011.17 1015.16 1015.66 1015.16 1014.39 1015.56 1015.01 1014.73 1014.20 1013.14 1011.42 1009.19 1006.54 1004.72 1004.59 1004.71 1005.10 1005.68 1006.26 1007.01 1008.11
1004.09 1006.45 1007.75 1007.57 1008.77 1008.76 1008.41 1007.99 1007.73 1007.85 1008.39 1008.06 1007.76 1008.42 1009.12 1009.60 1009.81 1009.98 1009.68 1009.37 1009.44 1009.81 1010.55 1011.51 1012.20 1013.95 1014.52 1014.85 1014.86 1014.21 1013.95 1013.76 1013.57 1012.88 1011.74 1010.25 1006.34 1005.07 1005.27 1005.60 1005.80 1006.25 1006.76 1007.40 1008.39
1005.80 1008.01 1008.23 1008.23 1008.20 1008.35 1008.37 1008.11 1007.84 1008.05 1008.03 1008.36 1008.30 1008.38 1008.81 1009.58 1010.23 1010.09 1010.12 1010.61 1010.58 1010.41 1010.58 1011.41 1012.37 1013.85 1014.79 1015.33 1015.26 1014.39 1014.02 1013.51 1013.18 1012.84 1011.26 1010.07 1006.67 1005.99 1006.05 1006.31 1006.54 1006.79 1007.30 1008.09 1008.86
1005.96 1008.08 1009.28 1009.33 1008.55 1007.57 1007.66 1007.94 1008.18 1008.21 1008.16 1008.29 1008.77 1009.01 1009.45 1009.96 1010.37 1010.48 1010.83 1011.46 1011.41 1011.27 1011.47 1011.47 1012.23 1012.23 1012.00 1012.04 1012.41 1013.43 1012.95 1012.99 1013.06 1012.26 1010.81 1008.51 1008.13 1007.59 1006.83 1007.21 1007.11 1007.23 1008.01 1008.53 1009.25
1005.58 1006.99 1007.06 1008.03 1007.96 1007.45 1007.38 1007.58 1007.78 1008.40 1008.74 1008.85 1009.42 1009.33 1009.42 1010.12 1010.53 1010.66 1011.44 1012.20 1012.43 1012.66 1012.42 1012.50 1012.84 1012.71 1012.39 1012.50 1012.46 1012.17 1012.18 1012.29 1012.37 1011.62 1010.68 1009.54 1008.78 1008.76 1008.18 1007.29 1007.33 1007.90 1008.20 1008.82 1009.37
1005.33 1006.10 1007.24 1006.95 1007.01 1007.47 1007.12 1007.07 1007.27 1008.06 1008.36 1008.89 1008.77 1009.13 1009.44 1009.41 1009.46 1009.99 1010.60 1011.83 1011.98 1013.20 1012.92 1013.21 1012.90 1012.97 1012.55 1012.49 1012.46 1011.88 1011.51 1011.64 1011.77 1011.68 1011.01 1010.18 1007.48 1008.51 1007.71 1007.96 1007.80 1007.14 1008.06 1009.03 1009.57
1005.99 1006.15 1005.99 1006.36 1006.38 1006.91 1006.52 1006.71 1006.93 1007.39 1008.23 1008.04 1008.52 1009.02 1009.31 1008.67 1009.39 1009.82 1010.32 1011.25 1011.86 1012.49 1013.03 1013.03 1013.20 1013.49 1012.60 1012.20 1012.10 1010.35 1009.35 1009.94 1009.88 1009.96 1009.78 1008.77 1006.41 1007.29 1007.40 1007.24 1007.38 1007.78 1008.27 1008.87 1009.15
Wind_Speed
15 13 11 9 8 7 6 4 4 5 6 6 7 7 7 8 4 6 7 4 3 7 7 3 6 7 8 4 1 2 7 8 5 5 3 12 15 8 2 5 8 9 3 6 20
16 14 12 11 9 7 6 6 5 5 6 6 6 7 7 8 6 7 5 2 5 4 4 9 11 11 7 5 4 8 9 8 3 1 4 13 16 13 8 14 13 12 6 5 19
16 16 14 11 10 9 7 7 5 5 5 6 6 7 8 7 6 3 3 4 4 6 4 4 7 9 8 5 5 4 10 3 3 0 3 11 14 14 11 14 18 16 15 14 16
17 16 15 12 11 10 8 6 6 5 5 6 7 7 8 6 5 4 5 5 4 4 5 6 9 10 9 9 4 8 2 2 3 2 3 8 6 8 17 11 1 13 16 18 20
16 16 16 14 12 10 8 6 5 6 5 7 6 6 4 7 2 3 3 0 3 4 6 9 12 10 10 5 5 7 3 2 2 2 4 2 10 12 15 18 5 5 13 20 19
17 16 15 15 13 10 9 7 5 4 6 6 7 6 5 8 3 3 3 1 3 5 5 5 6 2 5 2 6 2 3 1 1 3 2 5 8 2 8 14 12 10 16 17 19
19 17 15 16 13 11 9 7 5 4 5 6 6 6 6 1 0 2 2 1 0 2 5 1 5 2 6 6 1 3 3 3 6 5 1 4 10 18 15 8 16 15 15 16 18
20 18 17 16 14 11 9 7 5 4 4 5 6 5 3 2 1 3 4 4 3 4 6 8 8 9 2 8 4 4 3 5 8 7 4 6 11 4 13 12 15 17 16 17 20
22 19 18 16 15 11 9 6 4 4 4 3 5 5 3 3 4 3 2 6 8 7 6 5 2 5 5 6 4 5 7 8 6 9 4 10 9 5 1 10 15 16 17 17 17
24 21 19 17 16 12 8 6 5 4 4 3 2 4 5 4 5 4 2 7 4 11 6 4 4 6 6 9 9 8 7 5 9 7 9 10 20 17 10 12 16 17 18 19 19
25 24 20 18 17 15 10 5 5 4 5 3 2 2 4 5 3 4 3 6 8 9 8 5 8 12 15 15 7 3 5 9 2 3 5 15 19 20 17 18 18 19 19 20 21
27 25 22 19 19 16 8 5 2 4 6 4 1 2 2 1 5 8 4 9 10 11 6 6 12 8 4 6 6 7 9 11 5 3 5 12 20 22 22 20 22 20 21 20 16
28 27 24 20 18 10 9 7 3 2 3 5 4 4 4 6 2 15 10 3 8 11 15 11 3 5 6 8 9 8 11 9 4 3 7 12 15 11 10 14 16 18 18 18 18
30 29 27 24 11 8 9 10 3 1 4 8 9 6 6 5 6 2 3 3 5 14 9 10 7 6 7 9 10 10 3 2 1 4 5 4 10 8 14 12 9 11 14 16 18
32 31 32 26 12 10 5 9 5 2 7 9 6 1 4 7 10 6 1 3 9 10 7 4 9 9 7 1 9 2 4 3 1 3 5 6 6 3 5 7 3 1 4 11 13
34 33 35 6 6 4 11 11 3 5 13 5 6 8 11 5 4 6 6 2 3 5 3 5 2 2 3 6 3 11 7 4 1 1 4 0 5 3 3 2 4 3 4 3 10
35 36 29 9 9 8 11 5 4 11 2 7 7 9 16 8 7 9 14 13 10 9 11 5 5 3 4 8 5 3 6 2 2 3 5 3 5 12 11 9 6 4 3 6 8
37 35 15 6 9 15 4 5 9 5 5 2 6 12 12 11 8 10 13 14 19 8 9 11 7 13 11 3 5 13 3 4 5 4 1 2 8 5 3 2 1 2 1 4 8
32 8 5 7 13 11 14 11 12 5 9 13 11 7 7 6 5 11 14 11 14 16 12 10 9 3 1 1 1 8 7 2 5 2 3 6 8 13 12 12 10 11 8 6 8
8 6 4 12 16 14 14 17 7 5 6 8 10 8 11 12 12 14 15 10 10 16 7 4 4 1 4 2 1 3 4 5 1 5 8 5 5 10 2 4 2 2 10 8 8
6 6 3 10 10 12 11 7 7 7 7 8 5 5 6 9 12 11 11 2 12 10 10 3 2 5 5 11 12 6 4 3 2 4 4 4 5 6 4 2 3 2 4 6 10
3 6 3 9 8 3 5 6 5 9 7 6 3 6 9 9 7 10 13 1 3 8 9 3 3 5 5 3 2 7 9 10 6 7 4 2 8 5 3 2 1 3 3 3 3
5 3 4 1 6 9 2 3 4 6 8 6 4 1 4 7 5 4 10 3 5 8 11 9 4 4 1 2 2 7 11 8 3 2 8 5 2 3 1 5 6 8 6 3 5
5 5 2 0 2 5 6 5 6 3 4 4 5 4 4 3 1 7 7 2 3 3 5 6 3 4 10 4 6 7 12 17 10 6 5 15 8 13 8 6 7 5 5 4 7
2 3 3 9 9 2 7 8 7 7 0 8 2 6 7 5 4 5 4 3 3 3 3 3 6 2 1 1 2 4 5 16 20 18 11 4 9 11 14 16 6 8 8 6 8
3 5 1 1 6 8 8 8 11 6 10 6 4 14 11 6 8 10 8 4 4 2 4 2 2 2 4 4 5 8 12 11 16 16 19 22 30 15 18 11 13 17 6 10 8
1 0 2 6 9 10 7 5 10 10 6 4 12 7 13 16 4 4 4 6 6 8 6 5 6 4 6 2 3 15 18 21 12 8 13 19 23 12 17 24 21 16 8 8 12
Wind_Direction
219 209 205 209 203 218 231 239 268 280 287 290 295 308 322 324 284 205 224 49 320 329 301 233 205 177 199 139 164 262 245 247 245 217 129 154 183 207 36 177 196 192 279 60 145
216 213 211 208 213 205 232 238 257 278 286 289 296 311 318 321 229 223 94 347 315 306 216 198 173 181 168 159 168 225 235 257 27 210 172 178 200 173 188 208 206 204 175 179 150
216 215 210 208 213 210 212 244 253 273 288 292 294 307 313 295 235 164 105 323 303 260 242 263 200 199 186 197 175 194 246 89 134 201 262 183 204 176 217 212 221 213 187 174 171
209 213 213 211 212 219 207 223 258 272 285 286 293 305 314 234 220 95 351 326 289 248 215 188 195 192 203 200 180 228 245 292 78 131 210 192 214 216 221 215 261 219 181 180 187
204 207 213 206 213 217 220 210 240 271 279 286 293 307 253 219 270 109 318 252 178 171 211 196 197 200 206 191 184 239 187 210 66 152 243 301 227 220 234 233 117 193 166 188 194
200 198 208 209 215 215 221 220 227 265 279 282 288 300 238 238 66 15 2 146 187 196 172 220 239 118 100 116 242 33 211 162 137 172 198 228 225 249 240 223 192 195 191 197 199
195 195 196 208 207 216 213 221 239 248 274 287 290 259 241 304 59 32 142 99 60 228 163 105 129 174 137 133 104 118 251 210 198 187 196 239 241 235 241 211 203 210 207 206 204
190 189 189 202 199 212 210 213 236 258 271 276 281 246 264 95 32 156 160 108 106 83 98 117 113 95 68 123 140 233 240 245 125 175 135 212 266 78 197 189 215 214 216 211 210
182 187 184 187 194 196 208 208 227 262 247 254 233 247 196 136 184 118 238 138 121 117 91 119 81 105 152 183 187 204 261 215 179 205 136 216 278 96 141 213 232 226 220 217 215
179 183 180 188 185 181 188 210 190 200 190 197 239 233 161 178 131 133 132 152 131 141 134 167 153 181 201 195 225 237 232 220 258 168 220 228 255 267 213 221 232 234 223 220 217
177 178 177 183 178 174 157 180 165 176 220 241 161 20 143 101 182 153 161 164 149 197 185 178 207 212 210 216 281 285 271 269 107 105 251 247 261 268 264 233 232 234 230 220 219
178 176 174 178 173 180 211 226 174 43 175 208 243 120 120 202 139 172 182 192 186 191 149 171 228 231 71 132 216 250 260 266 112 138 243 284 278 270 258 252 245 231 238 232 217
176 173 168 166 162 176 212 210 340 326 242 183 192 188 162 185 169 174 190 184 206 192 201 214 75 130 168 177 196 226 245 273 298 288 233 294 269 251 246 247 252 244 235 241 224
172 168 160 148 154 172 216 215 211 328 264 180 198 176 161 178 192 80 208 216 194 212 201 239 127 170 188 208 204 225 211 195 253 309 283 352 291 287 280 272 209 234 233 231 226
171 166 157 162 129 174 160 152 147 249 252 120 146 88 149 192 124 169 100 199 187 165 183 149 170 171 196 245 192 91 149 141 127 275 308 175 260 278 224 293 276 112 226 217 215
170 165 160 145 142 139 142 127 180 73 236 143 134 162 159 170 133 121 164 57 34 147 95 77 25 293 68 93 351 141 119 98 114 287 256 252 239 294 240 218 142 111 82 167 183
169 167 166 154 164 146 140 141 77 213 138 178 173 179 185 158 154 183 179 180 168 162 194 140 159 131 182 110 121 215 170 336 263 192 234 117 228 260 274 249 232 231 159 142 170
167 163 164 153 133 143 99 93 199 230 171 156 147 158 186 153 171 180 181 197 224 235 173 190 214 175 173 233 174 190 203 208 248 213 79 135 236 241 265 288 294 212 273 241 177
162 133 111 148 135 143 136 186 217 181 147 142 134 145 186 187 165 170 200 214 206 207 209 199 200 99 56 350 172 167 203 56 85 110 262 233 263 274 248 251 258 260 226 198 189
126 119 53 141 144 144 147 199 216 190 148 167 171 185 177 175 166 191 183 198 205 197 254 196 116 265 107 198 167 279 135 133 187 232 245 182 260 258 168 162 106 174 200 184 168
78 91 99 133 140 154 188 189 190 195 154 166 157 136 178 166 185 198 190 136 215 185 190 162 227 127 159 207 181 165 189 210 273 222 251 277 219 253 253 253 212 143 162 216 183
89 84 164 160 135 212 181 171 207 152 185 210 190 125 165 159 160 204 203 117 90 151 168 178 66 153 192 98 330 239 216 184 207 187 229 308 237 171 213 223 351 288 254 205 185
79 96 9 28 171 189 145 164 170 150 169 171 147 95 102 158 146 186 184 27 172 165 152 177 200 132 193 190 182 221 207 229 90 22 199 215 224 78 198 281 254 259 271 188 176
117 118 97 285 287 178 149 167 154 15 148 95 110 73 125 130 62 159 143 64 43 94 40 119 148 219 240 77 129 190 209 205 202 209 209 227 278 310 294 242 260 248 234 218 198
122 153 156 182 216 196 172 160 149 160 99 144 131 184 167 152 145 132 108 108 54 14 73 151 203 173 308 273 232 218 200 204 213 223 232 267 248 229 253 269 254 231 257 229 224
132 137 101 276 139 183 179 195 178 141 156 190 201 185 189 171 187 184 129 185 169 120 140 164 143 89 236 157 231 262 240 224 220 231 250 259 260 247 257 280 274 263 203 224 233
85 359 165 149 162 177 201 166 189 148 217 211 188 148 199 210 114 136 164 159 146 153 159 123 139 158 251 27 301 271 232 218 206 194 207 232 246 239 244 247 254 277 267 248 234